Regional Weather Roundup
Issued by NWS

Home | Current Version | Previous Version | Graphics & Text | Print | Product List | Glossary Off
Versions: 1 2 3 4 5 6 7 8 9 10 11 12 13 14 15 16 17 18 19 20 21 22 23 24 25 26 27 28 29 30 31 32 33 34 35 36 37 38 39 40 41 42 43 44 45 46 47 48 49 50

000
ASUS43 KMPX 200701
RWRMN
WEATHER ROUNDUP FOR MINNESOTA
NATIONAL WEATHER SERVICE TWIN CITIES/CHANHASSEN MN
200 AM CDT SUN AUG 20 2017


NOTE: "FAIR" INDICATES FEW OR NO CLOUDS BELOW 12,000 FEET WITH NO
SIGNIFICANT WEATHER AND/OR OBSTRUCTIONS TO VISIBILITY. N/A MEANS
CURRENT SKY AND/OR WEATHER CONDITIONS ARE NOT AVAILABLE.

MNZ060>063-068>070-200800-
   Twin Cities Metro

CITY           SKY/WX    TMP DP  RH WIND       PRES   REMARKS
TWIN CITIES    PTCLDY    69  62  78 S5        29.89F
ST PAUL        PTCLDY    65  64  97 SE7       29.90S
CRYSTAL        CLEAR     65  60  84 SE3       29.87F
LAKEVILLE      CLOUDY    57  57 100 E3        29.89F FOG
EDEN PRAIRIE     N/A     67  63  87 SE5       29.87F
SOUTH ST PAUL  PTCLDY    65  64  95 CALM      29.90S
LAKE ELMO      FAIR      61  61 100 CALM      29.91S
$$
MNZ001>005-007-008-013>017-022>024-027-028-200800-
   Northwest Minnesota

CITY           SKY/WX    TMP DP  RH WIND       PRES   REMARKS
BEMIDJI        CLEAR     66  61  82 S7        29.81S
HALLOCK        CLEAR     64  63  94 NW8       29.73R
ROSEAU         CLEAR     68  63  83 SW9       29.73R
WARROAD        PTCLDY    68  63  83 S8G16     29.73F
CROOKSTON      PTCLDY    68  63  83 SW10      29.76R
FOSSTON        CLEAR     66  61  82 S14       29.78F
DETROIT LAKES  PTCLDY    68  63  83 S7        29.83S
MOORHEAD       PTCLDY    66  63  88 S13       29.79F
PARK RAPIDS    CLEAR     63  60  90 S6        29.83F
MAHNOMEN       FAIR      66  62  87 S12       29.79S
$$
MNZ006-009>011-018-025>026-200800-
   North Central Minnesota

CITY           SKY/WX    TMP DP  RH WIND       PRES   REMARKS
BAUDETTE       CLOUDY    62  60  93 S6        29.75F
FLAG ISLAND    CLEAR     72  64  78 S3        29.71F
INTL FALLS     CLEAR     62  58  86 CALM      29.80F
WASKISH        CLOUDY    66  61  82 S7        29.78F
BIG FORK       CLOUDY    64  59  82 S3        29.83F
LONGVILLE      CLEAR     64  61  88 S7        29.83F
GRAND RAPIDS   CLEAR     61  59  93 S7        29.87F
CRANE LAKE     CLEAR     54  52  94 CALM      29.85S
ORR            CLEAR     59  55  88 SE3       29.82S
COOK           CLEAR     63  59  88 S3        29.86S
WALKER         FAIR      65  61  86 SW7       29.82S
$$
MNZ012-019>021-037-200800-
   Northeast Minnesota

CITY           SKY/WX    TMP DP  RH WIND       PRES   REMARKS
DULUTH         CLEAR     62  59  90 SW5       29.89S
ELY            CLEAR     59  57  94 CALM      29.87S
HIBBING        FOG       53  53 100 CALM      29.87S VSB 1/2
EVELETH        CLOUDY    63  58  83 S5        29.88S
DULUTH HARBOR  CLEAR     64  61  88 SW7       29.88R
SILVER BAY     CLEAR     57  55  94 CALM      29.86F
GRAND MARAIS     N/A     59  58  96 CALM      29.86R
$$
MNZ029>031-032-039>041-046>048-054>057-064-200800-
   West Central Minnesota

CITY           SKY/WX    TMP DP  RH WIND       PRES   REMARKS
FERGUS FALLS   PTCLDY    64  64 100 S6        29.82R
WHEATON        PTCLDY    64  63  94 SE7       29.82F
MORRIS         CLEAR     64  63  94 SE8       29.82F
ALEXANDRIA     CLEAR     66  64  93 S9        29.85F
ELBOW LAKE     FAIR      65  64  96 S8        29.83S
WADENA         CLEAR     63  63 100 S5        29.84S
GLENWOOD       CLEAR     64  63  94 CALM      29.86F
APPLETON       CLEAR     63  61  94 SE3       29.82F
BENSON         CLEAR     64  63  94 S5        29.85F
ORTONVILLE     CLEAR     64  63  94 MISG      29.83S
MADISON        PTCLDY    64  64 100 S5        29.83S
WILLMAR        FAIR      64  63  94 SE6       29.86F
$$
MNZ033>034-036-042>043-049>051-058-059-200800-
   Central Minnesota

CITY           SKY/WX    TMP DP  RH WIND       PRES   REMARKS
ST CLOUD       CLEAR     62  62 100 SE5       29.87F
SAUK CENTRE    FAIR      60  60  99 CALM      29.86F FOG
PAYNESVILLE    CLEAR     65  64  95 S5        29.86F
AITKIN         CLEAR     63  61  94 S6        29.85F
PINE RIVER     CLEAR     57  57 100 CALM      29.88F
BRAINERD       CLEAR     63  61  93 S7        29.85F
STAPLES        CLEAR     61  61 100 S6        29.84F
LONG PRAIRIE   FAIR      59  57  94 SE5       29.86F FOG
LITTLE FALLS   CLEAR     63  59  88 SE5       29.86F
LITCHFIELD     CLEAR     68  66  94 SE3       29.87F
BUFFALO        PTCLDY    64  61  89 CALM      29.88F
MAPLE LAKE     CLEAR     65  64  95 SE3       29.88F
HUTCHINSON     CLEAR     63  62  97 CALM      29.88F
$$
MNZ037-044-045-052-053-200800-
   East Central Minnesota

CITY           SKY/WX    TMP DP  RH WIND       PRES   REMARKS
PRINCETON      FOG       61  61 100 CALM      29.88F VSB 3/4
MORA           CLEAR     55  55 100 CALM      29.90F
CAMBRIDGE      CLEAR     66  63  88 SE3       29.89S
RUSH CITY      MOCLDY    61  60  94 S5        29.89F FOG
MOOSE LAKE     FOG       54  54 100 CALM      29.86F VSB 1/4
HINCKLEY       FAIR      55  55 100 CALM      29.89F
CLOQUET        CLEAR     61  57  88 CALM      29.89S
MCGREGOR       CLEAR     61  57  88 CALM      29.87F
$$
MNZ071>073-080-081-089-090-097-098-200800-
   Southwest Minnesota

CITY           SKY/WX    TMP DP  RH WIND       PRES   REMARKS
MONTEVIDEO     PTCLDY    64  63  94 S6        29.83F
GRANITE FALLS  PTCLDY    66  65  94 E5        29.85F
CANBY          PTCLDY    64  63  94 CALM      29.85S
MARSHALL       CLOUDY    68  64  87 CALM      29.84R
REDWOOD FALLS  CLOUDY    66  63  90 SE6       29.83F
OLIVIA         CLOUDY    64  63  94 SE5       29.84F
PIPESTONE      CLOUDY    68  64  88 S6        29.85F
WINDOM         CLOUDY    70  63  78 SE5       29.85F
WORTHINGTON    CLOUDY    69  63  81 SE6       29.86F
JACKSON        CLOUDY    68  63  83 CALM      29.86F
TRACY          CLOUDY    69  65  89 S9        29.84F
SLAYTON        CLOUDY    64  60  87 SE6       29.86F
$$
MNZ065>067-074>077-082>085-091>093-200800-
   South Central Minnesota

CITY           SKY/WX    TMP DP  RH WIND       PRES   REMARKS
MANKATO        CLOUDY    66  63  90 S7        29.88F
NEW ULM        CLOUDY    64  63  94 SE7       29.85F
ST JAMES       CLOUDY    66  64  94 SE8       29.86F
FAIRMONT       CLOUDY    66  64  93 SE8       29.86F
GLENCOE        PTCLDY    65  65  98 CALM      29.87S
FARIBAULT      CLOUDY    66  63  88 SE6       29.89F
OWATONNA       CLOUDY    66  63  88 SE10      29.90F
WASECA         CLOUDY    63  61  94 SE6       29.89F
ALBERT LEA     CLOUDY    70  66  88 S8        29.90F
$$
MNZ078>079-086>088-094>096-200800-
   Southeast Minnesota

CITY           SKY/WX    TMP DP  RH WIND       PRES   REMARKS
ROCHESTER      CLOUDY    61  60  97 S8        29.93F
RED WING       PTCLDY    64  61  88 CALM      29.90S
DODGE CENTER   CLOUDY    61  59  94 SE7       29.92F
WINONA         CLEAR     63  61  94 CALM      29.93F
AUSTIN         PTCLDY    64  61  88 S6        29.92F
PRESTON        CLOUDY    61  58  90 S5        29.95S
$$
ABBREVIATIONS USED IN REMARKS
   TC - TEMPERATURES IN CELSIUS
  WCI - WIND CHILL INDEX
   HX - HEAT INDEX
  VSB - VISIBILITY
$$




USA.gov is the U.S. government's official web portal to all federal, state and local government web resources and services.